owner,sensor,date,latitude,longitude,vertical_datum,wind_speed,wind_to_direction,wind_speed_of_gust,qcFlag 
TCOON,ioos:station:TCOON:518:1,2012-08-01T00:00:00Z,29.5150,-94.5133,0.0,4.1,200.0,,'1111122,1111122,1111122' 
TCOON,ioos:station:TCOON:518:1,2012-08-01T01:00:00Z,29.5150,-94.5133,0.0,4.1,200.0,,'1111122,1111122,1111122' 
TCOON,ioos:station:TCOON:518:1,2012-08-01T02:00:00Z,29.5150,-94.5133,0.0,3.1,200.0,,'1111122,1111122,1111122' 
TCOON,ioos:station:TCOON:518:1,2012-08-01T03:00:00Z,29.5150,-94.5133,0.0,3.6,200.0,,'1111122,1111122,1111122' 
TCOON,ioos:station:TCOON:518:1,2012-08-01T09:00:00Z,29.5150,-94.5133,0.0,4.1,220.0,,'1111122,1111122,1111122' 
TCOON,ioos:station:TCOON:518:1,2012-08-01T10:00:00Z,29.5150,-94.5133,0.0,4.6,230.0,,'1111122,1111122,1111122' 
TCOON,ioos:station:TCOON:518:1,2012-08-01T11:00:00Z,29.5150,-94.5133,0.0,4.1,240.0,,'1111122,1111122,1111122' 
TCOON,ioos:station:TCOON:518:1,2012-08-01T12:00:00Z,29.5150,-94.5133,0.0,3.1,250.0,,'1111122,1111122,1111122' 
TCOON,ioos:station:TCOON:518:1,2012-08-01T13:00:00Z,29.5150,-94.5133,0.0,3.1,246.0,4.3,'11111222,11111222,11111222' 
TCOON,ioos:station:TCOON:518:1,2012-08-01T14:00:00Z,29.5150,-94.5133,0.0,4.1,240.0,,'1111122,1111122,1111122' 
TCOON,ioos:station:TCOON:518:1,2012-08-01T15:00:00Z,29.5150,-94.5133,0.0,3.1,260.0,,'1111122,1111122,1111122' 
TCOON,ioos:station:TCOON:518:1,2012-08-01T16:00:00Z,29.5150,-94.5133,0.0,3.1,280.0,,'1111122,1111122,1111122' 
TCOON,ioos:station:TCOON:518:1,2012-08-01T17:00:00Z,29.5150,-94.5133,0.0,2.1,240.0,,'1111122,1111122,1111122' 
TCOON,ioos:station:TCOON:518:1,2012-08-01T18:00:00Z,29.5150,-94.5133,0.0,3.1,200.0,,'1111122,1111122,1111122' 
TCOON,ioos:station:TCOON:518:1,2012-08-01T19:00:00Z,29.5150,-94.5133,0.0,3.6,210.0,,'1111122,1111122,1111122' 
TCOON,ioos:station:TCOON:518:1,2012-08-01T20:00:00Z,29.5150,-94.5133,0.0,3.6,190.0,,'1111122,1111122,1111122' 
TCOON,ioos:station:TCOON:518:1,2012-08-01T21:00:00Z,29.5150,-94.5133,0.0,4.6,190.0,,'1111122,1111122,1111122' 
TCOON,ioos:station:TCOON:518:1,2012-08-01T22:00:00Z,29.5150,-94.5133,0.0,4.1,190.0,,'1111122,1111122,1111122' 
TCOON,ioos:station:TCOON:518:1,2012-08-01T23:00:00Z,29.5150,-94.5133,0.0,4.6,197.0,6.1,'11111222,11111222,11111222' 
TCOON,ioos:station:TCOON:518:1,2012-08-02T00:00:00Z,29.5150,-94.5133,0.0,4.9,196.0,6.3,'11111222,11111222,11111222' 
TCOON,ioos:station:TCOON:518:1,2012-08-02T01:00:00Z,29.5150,-94.5133,0.0,4.1,190.0,,'1111122,1111122,1111122' 
TCOON,ioos:station:TCOON:518:1,2012-08-02T02:00:00Z,29.5150,-94.5133,0.0,4.1,200.0,,'1111122,1111122,1111122' 
TCOON,ioos:station:TCOON:518:1,2012-08-02T03:00:00Z,29.5150,-94.5133,0.0,4.1,200.0,,'1111122,1111122,1111122' 
TCOON,ioos:station:TCOON:518:1,2012-08-02T04:00:00Z,29.5150,-94.5133,0.0,5.1,200.0,,'1111122,1111122,1111122' 
TCOON,ioos:station:TCOON:518:1,2012-08-02T05:00:00Z,29.5150,-94.5133,0.0,3.1,210.0,,'1111122,1111122,1111122' 
TCOON,ioos:station:TCOON:518:1,2012-08-02T06:00:00Z,29.5150,-94.5133,0.0,3.6,210.0,,'1111122,1111122,1111122' 
TCOON,ioos:station:TCOON:518:1,2012-08-02T07:00:00Z,29.5150,-94.5133,0.0,3.1,230.0,,'1111122,1111122,1111122' 
TCOON,ioos:station:TCOON:518:1,2012-08-02T08:00:00Z,29.5150,-94.5133,0.0,4.1,230.0,,'1111122,1111122,1111122' 
TCOON,ioos:station:TCOON:518:1,2012-08-02T09:00:00Z,29.5150,-94.5133,0.0,3.1,250.0,,'1111122,1111122,1111122' 
TCOON,ioos:station:TCOON:518:1,2012-08-02T10:00:00Z,29.5150,-94.5133,0.0,2.6,250.0,,'1111122,1111122,1111122' 
TCOON,ioos:station:TCOON:518:1,2012-08-02T11:00:00Z,29.5150,-94.5133,0.0,4.1,240.0,,'1111122,1111122,1111122' 
TCOON,ioos:station:TCOON:518:1,2012-08-02T12:00:00Z,29.5150,-94.5133,0.0,2.6,230.0,,'1111122,1111122,1111122' 
TCOON,ioos:station:TCOON:518:1,2012-08-02T13:00:00Z,29.5150,-94.5133,0.0,3.6,240.0,,'1111122,1111122,1111122' 
TCOON,ioos:station:TCOON:518:1,2012-08-02T14:00:00Z,29.5150,-94.5133,0.0,3.1,220.0,,'1111122,1111122,1111122' 
TCOON,ioos:station:TCOON:518:1,2012-08-02T15:00:00Z,29.5150,-94.5133,0.0,3.1,220.0,,'1111122,1111122,1111122' 
TCOON,ioos:station:TCOON:518:1,2012-08-02T16:00:00Z,29.5150,-94.5133,0.0,3.6,200.0,,'1111122,1111122,1111122' 
TCOON,ioos:station:TCOON:518:1,2012-08-02T17:00:00Z,29.5150,-94.5133,0.0,3.1,200.0,,'1111122,1111122,1111122' 
TCOON,ioos:station:TCOON:518:1,2012-08-02T18:00:00Z,29.5150,-94.5133,0.0,4.6,200.0,,'1111122,1111122,1111122' 
TCOON,ioos:station:TCOON:518:1,2012-08-02T19:00:00Z,29.5150,-94.5133,0.0,3.5,187.0,6.3,'11111222,11111222,11111222' 
TCOON,ioos:station:TCOON:518:1,2012-08-02T20:00:00Z,29.5150,-94.5133,0.0,3.3,192.0,5.8,'11111222,11111222,11111222' 
TCOON,ioos:station:TCOON:518:1,2012-08-02T21:00:00Z,29.5150,-94.5133,0.0,4.3,203.0,6.8,'11111222,11111222,11111222' 
TCOON,ioos:station:TCOON:518:1,2012-08-02T22:00:00Z,29.5150,-94.5133,0.0,4.0,187.0,6.5,'11111222,11111222,11111222' 
TCOON,ioos:station:TCOON:518:1,2012-08-02T23:00:00Z,29.5150,-94.5133,0.0,2.7,196.0,5.0,'11111222,11111222,11111222' 
TCOON,ioos:station:TCOON:518:1,2012-08-03T00:00:00Z,29.5150,-94.5133,0.0,3.7,195.0,5.1,'11111222,11111222,11111222' 
TCOON,ioos:station:TCOON:518:1,2012-08-03T01:00:00Z,29.5150,-94.5133,0.0,2.7,201.0,6.3,'11111222,11111222,11111222' 
TCOON,ioos:station:TCOON:518:1,2012-08-03T02:00:00Z,29.5150,-94.5133,0.0,3.6,193.0,5.4,'11111222,11111222,11111222' 
TCOON,ioos:station:TCOON:518:1,2012-08-03T03:00:00Z,29.5150,-94.5133,0.0,3.7,189.0,5.8,'11111222,11111222,11111222' 
TCOON,ioos:station:TCOON:518:1,2012-08-03T04:00:00Z,29.5150,-94.5133,0.0,3.7,198.0,5.4,'11111222,11111222,11111222' 
TCOON,ioos:station:TCOON:518:1,2012-08-03T05:00:00Z,29.5150,-94.5133,0.0,4.1,199.0,5.6,'11111222,11111222,11111222' 
TCOON,ioos:station:TCOON:518:1,2012-08-03T06:00:00Z,29.5150,-94.5133,0.0,2.9,198.0,5.1,'11111222,11111222,11111222' 
TCOON,ioos:station:TCOON:518:1,2012-08-07T19:00:00Z,29.5150,-94.5133,0.0,3.3,158.0,4.6,'11111222,11111222,11111222' 
TCOON,ioos:station:TCOON:518:1,2012-08-07T20:00:00Z,29.5150,-94.5133,0.0,3.5,160.0,5.2,'11111222,11111222,11111222' 
TCOON,ioos:station:TCOON:518:1,2012-08-07T21:00:00Z,29.5150,-94.5133,0.0,4.4,154.0,5.4,'11111222,11111222,11111222' 
TCOON,ioos:station:TCOON:518:1,2012-08-07T22:00:00Z,29.5150,-94.5133,0.0,3.7,160.0,5.4,'11111222,11111222,11111222' 
TCOON,ioos:station:TCOON:518:1,2012-08-07T23:00:00Z,29.5150,-94.5133,0.0,3.0,177.0,4.4,'11111222,11111222,11111222' 
TCOON,ioos:station:TCOON:518:1,2012-08-08T00:00:00Z,29.5150,-94.5133,0.0,3.1,168.0,4.0,'11111222,11111222,11111222' 
TCOON,ioos:station:TCOON:518:1,2012-08-08T01:00:00Z,29.5150,-94.5133,0.0,2.9,169.0,4.2,'11111222,11111222,11111222' 
TCOON,ioos:station:TCOON:518:1,2012-08-08T02:00:00Z,29.5150,-94.5133,0.0,3.2,177.0,5.1,'11111222,11111222,11111222' 
TCOON,ioos:station:TCOON:518:1,2012-08-08T03:00:00Z,29.5150,-94.5133,0.0,3.2,174.0,5.1,'11111222,11111222,11111222' 
TCOON,ioos:station:TCOON:518:1,2012-08-08T04:00:00Z,29.5150,-94.5133,0.0,3.2,171.0,5.0,'11111222,11111222,11111222' 
TCOON,ioos:station:TCOON:518:1,2012-08-08T05:00:00Z,29.5150,-94.5133,0.0,2.1,182.0,2.8,'11111222,11111222,11111222' 
TCOON,ioos:station:TCOON:518:1,2012-08-08T06:00:00Z,29.5150,-94.5133,0.0,2.4,184.0,3.7,'11111222,11111222,11111222' 
TCOON,ioos:station:TCOON:518:1,2012-08-08T07:00:00Z,29.5150,-94.5133,0.0,1.2,184.0,1.7,'11111222,11111222,11111222' 
TCOON,ioos:station:TCOON:518:1,2012-08-08T08:00:00Z,29.5150,-94.5133,0.0,2.0,180.0,3.2,'11111222,11111222,11111222' 
TCOON,ioos:station:TCOON:518:1,2012-08-08T09:00:00Z,29.5150,-94.5133,0.0,1.6,180.0,2.1,'11111222,11111222,11111222' 
TCOON,ioos:station:TCOON:518:1,2012-08-08T10:00:00Z,29.5150,-94.5133,0.0,1.0,197.0,1.2,'11111222,11111222,11111222' 
TCOON,ioos:station:TCOON:518:1,2012-08-08T11:00:00Z,29.5150,-94.5133,0.0,0.7,184.0,1.2,'11111222,11111222,11111222' 
TCOON,ioos:station:TCOON:518:1,2012-08-08T12:00:00Z,29.5150,-94.5133,0.0,0.9,298.0,1.1,'11111222,11111222,11111222' 
TCOON,ioos:station:TCOON:518:1,2012-08-08T13:00:00Z,29.5150,-94.5133,0.0,1.4,37.0,1.9,'11111222,11111222,11111222' 
TCOON,ioos:station:TCOON:518:1,2012-08-08T14:00:00Z,29.5150,-94.5133,0.0,2.2,39.0,2.7,'11111222,11111222,11111222' 
TCOON,ioos:station:TCOON:518:1,2012-08-08T15:00:00Z,29.5150,-94.5133,0.0,0.8,113.0,1.5,'11111222,11111222,11111222' 
TCOON,ioos:station:TCOON:518:1,2012-08-08T16:00:00Z,29.5150,-94.5133,0.0,2.8,134.0,4.7,'11111222,11111222,11111222' 
TCOON,ioos:station:TCOON:518:1,2012-08-08T17:00:00Z,29.5150,-94.5133,0.0,3.6,134.0,4.8,'11111222,11111222,11111222' 
TCOON,ioos:station:TCOON:518:1,2012-08-08T18:00:00Z,29.5150,-94.5133,0.0,3.9,149.0,5.2,'11111222,11111222,11111222' 
TCOON,ioos:station:TCOON:518:1,2012-08-08T19:00:00Z,29.5150,-94.5133,0.0,4.8,126.0,6.5,'11111222,11111222,11111222' 
TCOON,ioos:station:TCOON:518:1,2012-08-08T20:00:00Z,29.5150,-94.5133,0.0,4.6,146.0,6.2,'11111222,11111222,11111222' 
TCOON,ioos:station:TCOON:518:1,2012-08-08T21:00:00Z,29.5150,-94.5133,0.0,4.8,133.0,6.0,'11111222,11111222,11111222' 
TCOON,ioos:station:TCOON:518:1,2012-08-08T22:00:00Z,29.5150,-94.5133,0.0,4.0,157.0,5.7,'11111222,11111222,11111222' 
TCOON,ioos:station:TCOON:518:1,2012-08-08T23:00:00Z,29.5150,-94.5133,0.0,5.1,154.0,7.0,'11111222,11111222,11111222' 
TCOON,ioos:station:TCOON:518:1,2012-08-09T00:00:00Z,29.5150,-94.5133,0.0,3.1,158.0,4.7,'11111222,11111222,11111222' 
TCOON,ioos:station:TCOON:518:1,2012-08-09T01:00:00Z,29.5150,-94.5133,0.0,2.8,173.0,3.9,'11111222,11111222,11111222' 
TCOON,ioos:station:TCOON:518:1,2012-08-09T02:00:00Z,29.5150,-94.5133,0.0,3.9,169.0,5.5,'11111222,11111222,11111222' 
TCOON,ioos:station:TCOON:518:1,2012-08-09T03:00:00Z,29.5150,-94.5133,0.0,3.1,180.0,4.9,'11111222,11111222,11111222' 
TCOON,ioos:station:TCOON:518:1,2012-08-09T04:00:00Z,29.5150,-94.5133,0.0,3.2,181.0,4.9,'11111222,11111222,11111222' 
TCOON,ioos:station:TCOON:518:1,2012-08-09T05:00:00Z,29.5150,-94.5133,0.0,2.5,183.0,5.0,'11111222,11111222,11111222' 
TCOON,ioos:station:TCOON:518:1,2012-08-09T06:00:00Z,29.5150,-94.5133,0.0,2.7,215.0,3.8,'11111222,11111222,11111222' 
TCOON,ioos:station:TCOON:518:1,2012-08-09T07:00:00Z,29.5150,-94.5133,0.0,1.6,219.0,2.2,'11111222,11111222,11111222' 
TCOON,ioos:station:TCOON:518:1,2012-08-09T08:00:00Z,29.5150,-94.5133,0.0,2.6,223.0,3.9,'11111222,11111222,11111222' 
TCOON,ioos:station:TCOON:518:1,2012-08-09T09:00:00Z,29.5150,-94.5133,0.0,2.4,228.0,3.5,'11111222,11111222,11111222' 
TCOON,ioos:station:TCOON:518:1,2012-08-09T10:00:00Z,29.5150,-94.5133,0.0,2.2,255.0,3.0,'11111222,11111222,11111222' 
TCOON,ioos:station:TCOON:518:1,2012-08-09T11:00:00Z,29.5150,-94.5133,0.0,1.7,245.0,2.3,'11111222,11111222,11111222' 
TCOON,ioos:station:TCOON:518:1,2012-08-09T12:00:00Z,29.5150,-94.5133,0.0,2.7,235.0,3.4,'11111222,11111222,11111222' 
TCOON,ioos:station:TCOON:518:1,2012-08-09T13:00:00Z,29.5150,-94.5133,0.0,3.2,260.0,3.9,'11111222,11111222,11111222' 
TCOON,ioos:station:TCOON:518:1,2012-08-09T14:00:00Z,29.5150,-94.5133,0.0,3.5,299.0,4.2,'11111222,11111222,11111222' 
TCOON,ioos:station:TCOON:518:1,2012-08-09T15:00:00Z,29.5150,-94.5133,0.0,3.6,285.0,4.7,'11111222,11111222,11111222' 
TCOON,ioos:station:TCOON:518:1,2012-08-09T16:00:00Z,29.5150,-94.5133,0.0,4.0,253.0,5.4,'11111222,11111222,11111222' 
TCOON,ioos:station:TCOON:518:1,2012-08-09T17:00:00Z,29.5150,-94.5133,0.0,3.1,261.0,4.2,'11111222,11111222,11111222' 
TCOON,ioos:station:TCOON:518:1,2012-08-09T18:00:00Z,29.5150,-94.5133,0.0,3.0,219.0,4.1,'11111222,11111222,11111222' 
TCOON,ioos:station:TCOON:518:1,2012-08-09T19:00:00Z,29.5150,-94.5133,0.0,3.9,182.0,6.5,'11111222,11111222,11111222' 
TCOON,ioos:station:TCOON:518:1,2012-08-09T20:00:00Z,29.5150,-94.5133,0.0,4.1,210.0,7.1,'11111222,11111222,11111222' 
TCOON,ioos:station:TCOON:518:1,2012-08-09T21:00:00Z,29.5150,-94.5133,0.0,4.4,215.0,6.9,'11111222,11111222,11111222' 
TCOON,ioos:station:TCOON:518:1,2012-08-09T22:00:00Z,29.5150,-94.5133,0.0,3.8,202.0,7.4,'11111222,11111222,11111222' 
TCOON,ioos:station:TCOON:518:1,2012-08-09T23:00:00Z,29.5150,-94.5133,0.0,5.5,220.0,7.1,'11111222,11111222,11111222' 
TCOON,ioos:station:TCOON:518:1,2012-08-10T00:00:00Z,29.5150,-94.5133,0.0,4.3,218.0,6.6,'11111222,11111222,11111222' 
TCOON,ioos:station:TCOON:518:1,2012-08-10T01:00:00Z,29.5150,-94.5133,0.0,3.9,215.0,5.3,'11111222,11111222,11111222' 
TCOON,ioos:station:TCOON:518:1,2012-08-10T02:00:00Z,29.5150,-94.5133,0.0,3.8,218.0,6.4,'11111222,11111222,11111222' 
TCOON,ioos:station:TCOON:518:1,2012-08-10T03:00:00Z,29.5150,-94.5133,0.0,4.0,218.0,5.8,'11111222,11111222,11111222' 
TCOON,ioos:station:TCOON:518:1,2012-08-10T04:00:00Z,29.5150,-94.5133,0.0,4.5,215.0,6.1,'11111222,11111222,11111222' 
TCOON,ioos:station:TCOON:518:1,2012-08-10T05:00:00Z,29.5150,-94.5133,0.0,4.6,214.0,6.8,'11111222,11111222,11111222' 
TCOON,ioos:station:TCOON:518:1,2012-08-10T06:00:00Z,29.5150,-94.5133,0.0,4.0,213.0,6.2,'11111222,11111222,11111222' 
TCOON,ioos:station:TCOON:518:1,2012-08-10T07:00:00Z,29.5150,-94.5133,0.0,3.8,215.0,7.6,'11111222,11111222,11111222' 
TCOON,ioos:station:TCOON:518:1,2012-08-10T08:00:00Z,29.5150,-94.5133,0.0,4.4,221.0,7.0,'11111222,11111222,11111222' 
TCOON,ioos:station:TCOON:518:1,2012-08-10T09:00:00Z,29.5150,-94.5133,0.0,3.7,236.0,6.1,'11111222,11111222,11111222' 
TCOON,ioos:station:TCOON:518:1,2012-08-10T10:00:00Z,29.5150,-94.5133,0.0,3.8,249.0,5.5,'11111222,11111222,11111222' 
TCOON,ioos:station:TCOON:518:1,2012-08-10T11:00:00Z,29.5150,-94.5133,0.0,2.7,249.0,3.9,'11111222,11111222,11111222' 
TCOON,ioos:station:TCOON:518:1,2012-08-10T12:00:00Z,29.5150,-94.5133,0.0,3.1,243.0,4.6,'11111222,11111222,11111222' 
TCOON,ioos:station:TCOON:518:1,2012-08-10T13:00:00Z,29.5150,-94.5133,0.0,4.7,235.0,6.6,'11111222,11111222,11111222' 
TCOON,ioos:station:TCOON:518:1,2012-08-10T14:00:00Z,29.5150,-94.5133,0.0,5.3,252.0,7.2,'11111222,11111222,11111222' 
TCOON,ioos:station:TCOON:518:1,2012-08-10T15:00:00Z,29.5150,-94.5133,0.0,5.7,252.0,7.5,'11111222,11111222,11111222' 
TCOON,ioos:station:TCOON:518:1,2012-08-10T16:00:00Z,29.5150,-94.5133,0.0,5.8,260.0,7.3,'11111222,11111222,11111222' 
TCOON,ioos:station:TCOON:518:1,2012-08-10T17:00:00Z,29.5150,-94.5133,0.0,5.7,239.0,7.5,'11111222,11111222,11111222' 
TCOON,ioos:station:TCOON:518:1,2012-08-10T18:00:00Z,29.5150,-94.5133,0.0,4.5,221.0,7.0,'11111222,11111222,11111222' 
TCOON,ioos:station:TCOON:518:1,2012-08-10T19:00:00Z,29.5150,-94.5133,0.0,4.8,211.0,7.5,'11111222,11111222,11111222' 
TCOON,ioos:station:TCOON:518:1,2012-08-10T20:00:00Z,29.5150,-94.5133,0.0,4.8,211.0,8.5,'11111222,11111222,11111222' 
TCOON,ioos:station:TCOON:518:1,2012-08-10T21:00:00Z,29.5150,-94.5133,0.0,5.1,215.0,8.0,'11111222,11111222,11111222' 
TCOON,ioos:station:TCOON:518:1,2012-08-10T22:00:00Z,29.5150,-94.5133,0.0,4.0,209.0,8.0,'11111222,11111222,11111222' 
TCOON,ioos:station:TCOON:518:1,2012-08-10T23:00:00Z,29.5150,-94.5133,0.0,4.3,204.0,8.3,'11111222,11111222,11111222' 
TCOON,ioos:station:TCOON:518:1,2012-08-11T00:00:00Z,29.5150,-94.5133,0.0,5.7,216.0,8.1,'11111222,11111222,11111222' 
TCOON,ioos:station:TCOON:518:1,2012-08-11T01:00:00Z,29.5150,-94.5133,0.0,5.6,222.0,8.2,'11111222,11111222,11111222' 
TCOON,ioos:station:TCOON:518:1,2012-08-11T02:00:00Z,29.5150,-94.5133,0.0,4.0,229.0,6.4,'11111222,11111222,11111222' 
TCOON,ioos:station:TCOON:518:1,2012-08-11T03:00:00Z,29.5150,-94.5133,0.0,3.1,212.0,4.4,'11111222,11111222,11111222' 
TCOON,ioos:station:TCOON:518:1,2012-08-11T04:00:00Z,29.5150,-94.5133,0.0,3.9,226.0,5.6,'11111222,11111222,11111222' 
TCOON,ioos:station:TCOON:518:1,2012-08-11T05:00:00Z,29.5150,-94.5133,0.0,2.4,251.0,3.8,'11111222,11111222,11111222' 
TCOON,ioos:station:TCOON:518:1,2012-08-11T06:00:00Z,29.5150,-94.5133,0.0,2.8,233.0,3.5,'11111222,11111222,11111222' 
TCOON,ioos:station:TCOON:518:1,2012-08-11T07:00:00Z,29.5150,-94.5133,0.0,2.6,203.0,4.1,'11111222,11111222,11111222' 
TCOON,ioos:station:TCOON:518:1,2012-08-11T08:00:00Z,29.5150,-94.5133,0.0,3.5,221.0,4.8,'11111222,11111222,11111222' 
TCOON,ioos:station:TCOON:518:1,2012-08-11T09:00:00Z,29.5150,-94.5133,0.0,2.9,226.0,5.1,'11111222,11111222,11111222' 
TCOON,ioos:station:TCOON:518:1,2012-08-11T10:00:00Z,29.5150,-94.5133,0.0,3.3,251.0,4.7,'11111222,11111222,11111222' 
TCOON,ioos:station:TCOON:518:1,2012-08-11T11:00:00Z,29.5150,-94.5133,0.0,3.0,251.0,4.3,'11111222,11111222,11111222' 
TCOON,ioos:station:TCOON:518:1,2012-08-11T12:00:00Z,29.5150,-94.5133,0.0,2.9,249.0,4.1,'11111222,11111222,11111222' 
TCOON,ioos:station:TCOON:518:1,2012-08-11T13:00:00Z,29.5150,-94.5133,0.0,3.7,265.0,5.1,'11111222,11111222,11111222' 
TCOON,ioos:station:TCOON:518:1,2012-08-11T14:00:00Z,29.5150,-94.5133,0.0,4.9,278.0,6.6,'11111222,11111222,11111222' 
TCOON,ioos:station:TCOON:518:1,2012-08-11T15:00:00Z,29.5150,-94.5133,0.0,4.9,264.0,6.5,'11111222,11111222,11111222' 
TCOON,ioos:station:TCOON:518:1,2012-08-11T16:00:00Z,29.5150,-94.5133,0.0,3.9,264.0,6.4,'11111222,11111222,11111222' 
TCOON,ioos:station:TCOON:518:1,2012-08-11T17:00:00Z,29.5150,-94.5133,0.0,4.2,273.0,5.6,'11111222,11111222,11111222' 
TCOON,ioos:station:TCOON:518:1,2012-08-11T18:00:00Z,29.5150,-94.5133,0.0,3.4,258.0,4.3,'11111222,11111222,11111222' 
TCOON,ioos:station:TCOON:518:1,2012-08-11T19:00:00Z,29.5150,-94.5133,0.0,3.3,188.0,5.0,'11111222,11111222,11111222' 
TCOON,ioos:station:TCOON:518:1,2012-08-11T20:00:00Z,29.5150,-94.5133,0.0,3.5,189.0,5.3,'11111222,11111222,11111222' 
TCOON,ioos:station:TCOON:518:1,2012-08-11T21:00:00Z,29.5150,-94.5133,0.0,3.4,200.0,5.9,'11111222,11111222,11111222' 
TCOON,ioos:station:TCOON:518:1,2012-08-11T22:00:00Z,29.5150,-94.5133,0.0,4.3,186.0,6.9,'11111222,11111222,11111222' 
TCOON,ioos:station:TCOON:518:1,2012-08-11T23:00:00Z,29.5150,-94.5133,0.0,3.5,194.0,6.6,'11111222,11111222,11111222' 
TCOON,ioos:station:TCOON:518:1,2012-08-12T00:00:00Z,29.5150,-94.5133,0.0,4.5,195.0,6.5,'11111222,11111222,11111222' 
TCOON,ioos:station:TCOON:518:1,2012-08-12T01:00:00Z,29.5150,-94.5133,0.0,3.1,206.0,4.9,'11111222,11111222,11111222' 
TCOON,ioos:station:TCOON:518:1,2012-08-12T02:00:00Z,29.5150,-94.5133,0.0,3.2,212.0,5.5,'11111222,11111222,11111222' 
TCOON,ioos:station:TCOON:518:1,2012-08-12T03:00:00Z,29.5150,-94.5133,0.0,3.3,205.0,5.2,'11111222,11111222,11111222' 
TCOON,ioos:station:TCOON:518:1,2012-08-12T04:00:00Z,29.5150,-94.5133,0.0,3.1,200.0,5.0,'11111222,11111222,11111222' 
TCOON,ioos:station:TCOON:518:1,2012-08-12T05:00:00Z,29.5150,-94.5133,0.0,3.8,196.0,5.6,'11111222,11111222,11111222' 
TCOON,ioos:station:TCOON:518:1,2012-08-12T06:00:00Z,29.5150,-94.5133,0.0,2.5,202.0,5.4,'11111222,11111222,11111222' 
TCOON,ioos:station:TCOON:518:1,2012-08-12T07:00:00Z,29.5150,-94.5133,0.0,2.4,195.0,4.2,'11111222,11111222,11111222' 
TCOON,ioos:station:TCOON:518:1,2012-08-12T08:00:00Z,29.5150,-94.5133,0.0,3.2,194.0,4.8,'11111222,11111222,11111222' 
TCOON,ioos:station:TCOON:518:1,2012-08-12T09:00:00Z,29.5150,-94.5133,0.0,2.4,203.0,3.8,'11111222,11111222,11111222' 
TCOON,ioos:station:TCOON:518:1,2012-08-12T10:00:00Z,29.5150,-94.5133,0.0,2.5,203.0,4.6,'11111222,11111222,11111222' 
TCOON,ioos:station:TCOON:518:1,2012-08-12T11:00:00Z,29.5150,-94.5133,0.0,1.8,210.0,3.5,'11111222,11111222,11111222' 
TCOON,ioos:station:TCOON:518:1,2012-08-12T12:00:00Z,29.5150,-94.5133,0.0,1.4,216.0,3.2,'11111222,11111222,11111222' 
TCOON,ioos:station:TCOON:518:1,2012-08-12T13:00:00Z,29.5150,-94.5133,0.0,3.2,197.0,4.5,'11111222,11111222,11111222' 
TCOON,ioos:station:TCOON:518:1,2012-08-12T14:00:00Z,29.5150,-94.5133,0.0,2.2,221.0,4.2,'11111222,11111222,11111222' 
TCOON,ioos:station:TCOON:518:1,2012-08-12T15:00:00Z,29.5150,-94.5133,0.0,3.1,224.0,4.6,'11111222,11111222,11111222' 
TCOON,ioos:station:TCOON:518:1,2012-08-12T16:00:00Z,29.5150,-94.5133,0.0,3.0,223.0,5.0,'11111222,11111222,11111222' 
TCOON,ioos:station:TCOON:518:1,2012-08-12T17:00:00Z,29.5150,-94.5133,0.0,3.6,185.0,5.6,'11111222,11111222,11111222' 
TCOON,ioos:station:TCOON:518:1,2012-08-12T18:00:00Z,29.5150,-94.5133,0.0,3.7,190.0,5.3,'11111222,11111222,11111222' 
TCOON,ioos:station:TCOON:518:1,2012-08-12T19:00:00Z,29.5150,-94.5133,0.0,3.0,178.0,5.7,'11111222,11111222,11111222' 
TCOON,ioos:station:TCOON:518:1,2012-08-12T20:00:00Z,29.5150,-94.5133,0.0,4.4,186.0,7.0,'11111222,11111222,11111222' 
TCOON,ioos:station:TCOON:518:1,2012-08-12T21:00:00Z,29.5150,-94.5133,0.0,4.5,182.0,6.5,'11111222,11111222,11111222' 
TCOON,ioos:station:TCOON:518:1,2012-08-12T22:00:00Z,29.5150,-94.5133,0.0,2.9,199.0,6.1,'11111222,11111222,11111222' 
TCOON,ioos:station:TCOON:518:1,2012-08-12T23:00:00Z,29.5150,-94.5133,0.0,4.4,189.0,6.2,'11111222,11111222,11111222' 
TCOON,ioos:station:TCOON:518:1,2012-08-13T00:00:00Z,29.5150,-94.5133,0.0,3.7,195.0,5.3,'11111222,11111222,11111222' 
TCOON,ioos:station:TCOON:518:1,2012-08-13T01:00:00Z,29.5150,-94.5133,0.0,2.9,190.0,4.8,'11111222,11111222,11111222' 
TCOON,ioos:station:TCOON:518:1,2012-08-13T02:00:00Z,29.5150,-94.5133,0.0,2.6,186.0,3.9,'11111222,11111222,11111222' 
TCOON,ioos:station:TCOON:518:1,2012-08-13T03:00:00Z,29.5150,-94.5133,0.0,2.6,181.0,4.0,'11111222,11111222,11111222' 
TCOON,ioos:station:TCOON:518:1,2012-08-13T04:00:00Z,29.5150,-94.5133,0.0,3.2,194.0,4.9,'11111222,11111222,11111222' 
TCOON,ioos:station:TCOON:518:1,2012-08-13T05:00:00Z,29.5150,-94.5133,0.0,3.0,186.0,4.3,'11111222,11111222,11111222' 
TCOON,ioos:station:TCOON:518:1,2012-08-13T06:00:00Z,29.5150,-94.5133,0.0,2.9,191.0,5.3,'11111222,11111222,11111222' 
TCOON,ioos:station:TCOON:518:1,2012-08-13T07:00:00Z,29.5150,-94.5133,0.0,3.4,194.0,5.8,'11111222,11111222,11111222' 
TCOON,ioos:station:TCOON:518:1,2012-08-13T08:00:00Z,29.5150,-94.5133,0.0,2.1,207.0,4.5,'11111222,11111222,11111222' 
TCOON,ioos:station:TCOON:518:1,2012-08-13T09:00:00Z,29.5150,-94.5133,0.0,3.2,205.0,5.5,'11111222,11111222,11111222' 
TCOON,ioos:station:TCOON:518:1,2012-08-13T10:00:00Z,29.5150,-94.5133,0.0,3.5,197.0,6.3,'11111222,11111222,11111222' 
TCOON,ioos:station:TCOON:518:1,2012-08-13T11:00:00Z,29.5150,-94.5133,0.0,2.3,202.0,5.1,'11111222,11111222,11111222' 
TCOON,ioos:station:TCOON:518:1,2012-08-13T12:00:00Z,29.5150,-94.5133,0.0,3.4,217.0,5.2,'11111222,11111222,11111222' 
TCOON,ioos:station:TCOON:518:1,2012-08-13T13:00:00Z,29.5150,-94.5133,0.0,2.9,225.0,5.0,'11111222,11111222,11111222' 
TCOON,ioos:station:TCOON:518:1,2012-08-13T14:00:00Z,29.5150,-94.5133,0.0,3.7,248.0,5.4,'11111222,11111222,11111222' 
TCOON,ioos:station:TCOON:518:1,2012-08-13T15:00:00Z,29.5150,-94.5133,0.0,3.6,223.0,6.2,'11111222,11111222,11111222' 
TCOON,ioos:station:TCOON:518:1,2012-08-13T16:00:00Z,29.5150,-94.5133,0.0,4.1,213.0,6.8,'11111222,11111222,11111222' 
TCOON,ioos:station:TCOON:518:1,2012-08-13T17:00:00Z,29.5150,-94.5133,0.0,3.9,218.0,5.4,'11111222,11111222,11111222' 
TCOON,ioos:station:TCOON:518:1,2012-08-13T18:00:00Z,29.5150,-94.5133,0.0,4.2,209.0,6.1,'11111222,11111222,11111222' 
TCOON,ioos:station:TCOON:518:1,2012-08-13T19:00:00Z,29.5150,-94.5133,0.0,5.2,199.0,7.4,'11111222,11111222,11111222' 
TCOON,ioos:station:TCOON:518:1,2012-08-13T20:00:00Z,29.5150,-94.5133,0.0,3.1,201.0,6.1,'11111222,11111222,11111222' 
TCOON,ioos:station:TCOON:518:1,2012-08-13T21:00:00Z,29.5150,-94.5133,0.0,4.8,195.0,6.7,'11111222,11111222,11111222' 
TCOON,ioos:station:TCOON:518:1,2012-08-13T22:00:00Z,29.5150,-94.5133,0.0,3.9,189.0,7.0,'11111222,11111222,11111222' 
TCOON,ioos:station:TCOON:518:1,2012-08-13T23:00:00Z,29.5150,-94.5133,0.0,4.6,197.0,7.2,'11111222,11111222,11111222' 
TCOON,ioos:station:TCOON:518:1,2012-08-14T00:00:00Z,29.5150,-94.5133,0.0,4.7,198.0,6.9,'11111222,11111222,11111222' 
TCOON,ioos:station:TCOON:518:1,2012-08-14T01:00:00Z,29.5150,-94.5133,0.0,4.7,202.0,7.3,'11111222,11111222,11111222' 
TCOON,ioos:station:TCOON:518:1,2012-08-14T02:00:00Z,29.5150,-94.5133,0.0,4.6,202.0,6.7,'11111222,11111222,11111222' 
TCOON,ioos:station:TCOON:518:1,2012-08-14T03:00:00Z,29.5150,-94.5133,0.0,4.7,199.0,7.4,'11111222,11111222,11111222' 
TCOON,ioos:station:TCOON:518:1,2012-08-14T04:00:00Z,29.5150,-94.5133,0.0,4.1,201.0,6.3,'11111222,11111222,11111222' 
TCOON,ioos:station:TCOON:518:1,2012-08-14T05:00:00Z,29.5150,-94.5133,0.0,5.2,204.0,8.3,'11111222,11111222,11111222' 
TCOON,ioos:station:TCOON:518:1,2012-08-14T06:00:00Z,29.5150,-94.5133,0.0,4.4,211.0,7.7,'11111222,11111222,11111222' 